Change the Weather History Date:

Friday, May 3, 2013

  Actual Average (KPOE) Record (KPOE)
Temperature  
Mean Temperature 52 °F -  
Max Temperature 62 °F 80 °F 89 °F (2002)
Min Temperature 42 °F 61 °F 44 °F (2013)
Degree Days  
Heating Degree Days 13    
Growing Degree Days 2 (Base 50)    
Moisture  
Dew Point 40 °F    
Average Humidity 74    
Maximum Humidity 93    
Minimum Humidity 38    
Precipitation  
Precipitation 0.01 in - - ()
Sea Level Pressure  
Sea Level Pressure 30.06 in    
Wind  
Wind Speed 7 mph (NNW)    
Max Wind Speed 13 mph    
Max Gust Speed 23 mph    
Visibility 10 miles    
Events Rain    
Averages and records for this station are not official NWS values.
T = Trace of Precipitation, MM = Missing Value Source: NWS Daily Summary

Daily Weather History Graph

Daily Weather History Graph

Search for Another Location

Airport or City:

Trip Planner

Search our weather history database for the weather conditions in past years. The results will help you decide how hot, cold, wet, or windy it might be!

Date:

Astronomy

May. 03, 2013 Rise Set
Actual Time 6:26 AM CDT 7:54 PM CDT
Civil Twilight 6:00 AM CDT 8:20 PM CDT
Nautical Twilight 5:29 AM CDT 8:51 PM CDT
Astronomical Twilight 4:56 AM CDT 9:23 PM CDT
Moon 2:26 AM CDT (5/3) 2:11 PM CDT (5/3)
Length of Visible Light 14h 20m
Length of Day
13h 28m
Last Quarter, 37% of the Moon is Illuminated
May 3
Last Quarter
May 9
New
May 17
First Quarter
May 24
Full
May 31
Last Quarter

Hourly Weather History & Observations

Time (CDT) Temp. Windchill Dew Point Humidity Pressure Visibility Wind Dir Wind Speed Gust Speed Precip Events Conditions
12:56 AM 50.0 °F - 46.9 °F 89% 30.06 in 10.0 mi Variable 6.9 mph 18.4 mph N/A   Overcast
1:56 AM 48.9 °F - 45.0 °F 86% 30.05 in 10.0 mi Variable 6.9 mph - N/A   Overcast
2:56 AM 46.9 °F - 44.1 °F 90% 30.04 in 10.0 mi Variable 6.9 mph - N/A   Overcast
3:56 AM 46.0 °F 41.9 °F 44.1 °F 93% 30.04 in 5.0 mi NW 8.1 mph - N/A   Overcast
4:56 AM 45.0 °F 41.2 °F 42.1 °F 90% 30.05 in 7.0 mi Variable 6.9 mph - N/A   Overcast
5:56 AM 44.1 °F 40.8 °F 41.0 °F 89% 30.05 in 7.0 mi Variable 5.8 mph - N/A   Overcast
6:56 AM 44.1 °F 40.1 °F 39.9 °F 85% 30.07 in 10.0 mi Variable 6.9 mph - 0.01 in   Overcast
7:56 AM 43.0 °F 38.8 °F 39.0 °F 86% 30.08 in 10.0 mi Variable 6.9 mph - 0.00 in Rain Light Rain
8:11 AM 42.8 °F 38.0 °F 39.2 °F 87% 30.09 in 10.0 mi NW 8.1 mph 16.1 mph N/A   Overcast
8:56 AM 43.0 °F 40.3 °F 39.0 °F 86% 30.09 in 10.0 mi Variable 4.6 mph - 0.00 in   Overcast
9:22 AM 42.8 °F 38.6 °F 37.4 °F 81% 30.09 in 10.0 mi Variable 6.9 mph 20.7 mph N/A   Overcast
9:56 AM 44.1 °F 39.0 °F 37.9 °F 79% 30.10 in 10.0 mi NNW 9.2 mph 18.4 mph N/A   Overcast
10:56 AM 46.0 °F 43.9 °F 39.0 °F 76% 30.11 in 10.0 mi Variable 4.6 mph - N/A   Overcast
11:06 AM 46.4 °F 41.9 °F 37.4 °F 71% 30.10 in 10.0 mi NNW 9.2 mph - N/A   Overcast
11:56 AM 48.0 °F - 37.9 °F 68% 30.11 in 10.0 mi Variable 6.9 mph 21.9 mph N/A   Overcast
12:56 PM 52.0 °F - 39.0 °F 61% 30.08 in 10.0 mi North 9.2 mph 23.0 mph N/A   Overcast
1:31 PM 55.4 °F - 39.2 °F 54% 30.07 in 10.0 mi NNW 9.2 mph 21.9 mph N/A   Mostly Cloudy
1:56 PM 57.0 °F - 39.9 °F 53% 30.06 in 10.0 mi North 11.5 mph 18.4 mph N/A   Mostly Cloudy
2:56 PM 60.1 °F - 39.0 °F 46% 30.03 in 10.0 mi North 12.7 mph 21.9 mph N/A   Partly Cloudy
3:56 PM 61.0 °F - 37.0 °F 41% 30.02 in 10.0 mi NNW 11.5 mph 20.7 mph N/A   Partly Cloudy
4:56 PM 62.1 °F - 36.0 °F 38% 30.01 in 10.0 mi Variable 6.9 mph 21.9 mph N/A   Partly Cloudy
5:56 PM 61.0 °F - 35.1 °F 38% 30.01 in 10.0 mi Variable 5.8 mph - N/A   Clear
6:56 PM 59.0 °F - 35.1 °F 41% 30.02 in 10.0 mi Variable 4.6 mph - N/A   Clear
7:56 PM 52.0 °F - 42.1 °F 69% 30.03 in 10.0 mi Calm Calm - N/A   Clear
8:56 PM 48.0 °F - 44.1 °F 86% 30.04 in 10.0 mi Calm Calm - N/A   Clear
9:56 PM 46.0 °F - 43.0 °F 89% 30.06 in 10.0 mi Calm Calm - N/A   Clear
10:56 PM 44.1 °F - 42.1 °F 93% 30.05 in 10.0 mi Calm Calm - N/A   Clear
11:56 PM 43.0 °F - 41.0 °F 93% 30.05 in 10.0 mi Calm Calm - N/A   Clear